Decatur, IL

12:49 PM CST on December 08, 2016 (GMT -0600)
Decatur

Weather History for KDEC - January, 2013

Change the Weather History Date:

Wednesday, January 23, 2013

  Actual Average Record
Temperature  
Mean Temperature 24 °F 27 °F  
Max Temperature 35 °F 35 °F 35 °F (2015)
Min Temperature 12 °F 19 °F 12 °F (2016)
Degree Days  
Heating Degree Days 41 38  
Month to date heating degree days 833 869  
Since 1 July heating degree days 2778 3008  
Cooling Degree Days 0 0  
Month to date cooling degree days 0 0  
Year to date cooling degree days 0 0  
Moisture  
Dew Point 9 °F    
Average Humidity 52    
Maximum Humidity 63    
Minimum Humidity 40    
Precipitation  
Precipitation 0.00 in 0.04 in 0.00 in (2016)
Month to date precipitation 0.85 1.39  
Year to date precipitation 0.85 1.39  
Sea Level Pressure  
Sea Level Pressure 30.27 in    
Wind  
Wind Speed 9 mph (West)    
Max Wind Speed 22 mph    
Max Gust Speed 30 mph    
Visibility 10 miles    
Events      
T = Trace of Precipitation, MM = Missing Value Source: NWS Daily Summary

Daily Weather History Graph

Daily Weather History Graph

Search for Another Location

Airport or City:

Trip Planner

Search our weather history database for the weather conditions in past years. The results will help you decide how hot, cold, wet, or windy it might be!

Date:

Astronomy

Jan. 23, 2013 Rise Set
Actual Time 7:10 AM CST 5:04 PM CST
Civil Twilight 6:41 AM CST 5:33 PM CST
Nautical Twilight 6:08 AM CST 6:06 PM CST
Astronomical Twilight 5:36 AM CST 6:38 PM CST
Moon 2:15 PM CST (1/23) 4:21 AM CST (1/23)
Length of Visible Light 10h 52m
Length of Day
9h 54m
Waxing Gibbous, 89% of the Moon is Illuminated
Jan 23
Waxing Gibbous
Jan 26
Full
Feb 3
Last Quarter
Feb 10
New
Feb 17
First Quarter

Hourly Weather History & Observations

Time (CST) Temp. Windchill Dew Point Humidity Pressure Visibility Wind Dir Wind Speed Gust Speed Precip Events Conditions
12:54 AM 14.0 °F - -0.9 °F 52% 30.39 in 10.0 mi Calm Calm - N/A   Overcast
1:54 AM 15.1 °F 9.4 °F -0.9 °F 49% 30.39 in 10.0 mi West 3.5 mph - N/A   Overcast
2:54 AM 15.1 °F 9.4 °F -0.0 °F 51% 30.38 in 10.0 mi WSW 3.5 mph - N/A   Overcast
3:54 AM 16.0 °F - -0.0 °F 49% 30.35 in 10.0 mi Calm Calm - N/A   Overcast
4:54 AM 16.0 °F - -0.0 °F 49% 30.35 in 10.0 mi Calm Calm - N/A   Overcast
5:54 AM 17.1 °F - 1.0 °F 50% 30.34 in 10.0 mi Calm Calm - N/A   Overcast
6:54 AM 17.1 °F 10.0 °F 1.9 °F 52% 30.35 in 10.0 mi South 4.6 mph - N/A   Overcast
7:54 AM 17.1 °F 7.6 °F 3.0 °F 54% 30.34 in 10.0 mi SSW 6.9 mph - N/A   Overcast
9:54 AM 21.9 °F 9.8 °F 8.1 °F 55% 30.32 in 10.0 mi SSW 12.7 mph - N/A   Overcast
10:54 AM 25.0 °F 14.8 °F 9.0 °F 51% 30.29 in 10.0 mi SW 10.4 mph - N/A   Overcast
11:54 AM 28.0 °F 18.1 °F 10.0 °F 47% 30.24 in 10.0 mi SW 11.5 mph - N/A   Mostly Cloudy
12:54 PM 32.0 °F 22.1 °F 12.0 °F 44% 30.19 in 10.0 mi SW 13.8 mph 20.7 mph N/A   Clear
1:54 PM 33.1 °F 23.9 °F 12.9 °F 43% 30.16 in 10.0 mi WSW 12.7 mph - N/A   Clear
2:54 PM 34.0 °F 25.5 °F 14.0 °F 44% 30.15 in 10.0 mi WSW 11.5 mph - N/A   Clear
3:54 PM 35.1 °F 27.4 °F 14.0 °F 42% 30.14 in 10.0 mi West 10.4 mph - N/A   Clear
4:54 PM 33.1 °F 24.9 °F 15.1 °F 48% 30.16 in 10.0 mi West 10.4 mph - N/A   Clear
5:54 PM 32.0 °F 24.8 °F 16.0 °F 52% 30.16 in 10.0 mi WNW 8.1 mph - N/A   Clear
6:54 PM 30.9 °F 21.2 °F 17.1 °F 57% 30.19 in 10.0 mi WNW 12.7 mph 19.6 mph N/A   Clear
7:32 PM 30.2 °F - 17.6 °F 60% 30.17 in 10.0 mi North - - N/A   Clear
7:54 PM 28.9 °F - 17.1 °F 61% 30.21 in 10.0 mi North - - N/A   Clear
8:54 PM 27.0 °F 15.2 °F 15.1 °F 61% 30.24 in 10.0 mi NW 15.0 mph 25.3 mph N/A   Clear
9:54 PM 26.1 °F 13.6 °F 14.0 °F 60% 30.27 in 10.0 mi NW 16.1 mph 26.5 mph N/A   Clear
10:54 PM 23.0 °F 8.7 °F 10.0 °F 58% 30.31 in 10.0 mi NNW 18.4 mph 24.2 mph N/A   Partly Cloudy
11:54 PM 19.9 °F 4.8 °F 9.0 °F 62% 30.35 in 10.0 mi North 18.4 mph 26.5 mph N/A   Clear